Погода в Тенби

Великобритания     51°40′43″N   4°42′44″W
темп.,
°C
ветер,
м/с
пор.,
м/с
влажн.,
%
обл.,
%
осадки,
мм/ч
давл.,
гПа
погр.,
м
11 мая, вт
вт1101:00+8ююз598648 0.1 1003349
04:00+7ю599322 0.6 1003332
07:00+8ю57916 1.2 1003364
10:00+9ююв57846 0.9 1004734
13:00+11ююв466710 1.1 1004977
16:00+10зюз4371100 0.1 1004617
19:00+9з34779 0.1 1004273
22:00+6юз2388100 0.1 100696
12 мая, ср
ср1201:00+8ююв2392100 0.4 1006148
04:00+8зюз5109215 0.6 1005488
07:00+8юз58900 0.8 1006502
10:00+10ююз56764 0.1 10071011
13:00+11ю5675100 0.4 1007922
16:00+11ю3470100 0.1 1007791
19:00+10ююв2278100 0.1 1008469
22:00+8вюв2390100 0.0 100889
13 мая, чт
чт1301:00+8с3595100 1.1 1007175
04:00+7с5995100 6.6 1006480
07:00+7с71195100 13.3 1006404
10:00+9с71095100 0.4 1007508
13:00+12всв4785100 1.0 1007811
16:00+12с5786100 2.0 1007548
19:00+11с71289100 3.4 1008372
22:00+9с71192100 1.4 1009356
14 мая, пт
пт1401:00+9с61095100 4.0 1009341
04:00+9с3695100 0.1 1010194
07:00+9св369378 0.1 1011275
10:00+11юв1184100 0.1 1012440
13:00+12ююз328461 1.0 1012517
16:00+12ю33735 0.6 1011525
19:00+11юв347862 0.6 1009264
22:00+10ю2482100 0.0 100892
15 мая, сб
сб1501:00+9ю4793100 0.1 1006312
04:00+9юв5990100 0.0 1004417
07:00+9вюв81296100 1.8 1001727
10:00+9ююв91396100 3.8 999763
13:00+13юз68847 5.3 998747
16:00+12юз710848 1.0 998828
19:00+10юз61095100 1.8 998653
22:00+10юз71195100 0.8 998540